• In Italy
  • List of Countries
  • For 7 days
  • Water Temperature
  • Satellite Maps
  • Weather Map
  • Weather Widgets
  • user-avatar
    Login

    Hourly Weather Bolshoe Oparino

    Today, 28 May, Monday

    Time Temperature Precipitation Wind Pressure Humidity
    00:00 +8°C° 0.3 mm 4 mps 750 mmHg 90%
    01:00 +7°C° 0 mm 5 mps 750 mmHg 89%
    02:00 +6°C° 0 mm 5 mps 751 mmHg 88%
    03:00 +5°C° 0 mm 5 mps 751 mmHg 87%
    04:00 +5°C° 0 mm 6 mps 752 mmHg 83%
    05:00 +5°C° 0 mm 6 mps 752 mmHg 79%
    06:00 +5°C° 0 mm 6 mps 753 mmHg 75%
    07:00 +6°C° 0 mm 7 mps 753 mmHg 67%
    08:00 +8°C° 0 mm 7 mps 754 mmHg 59%
    09:00 +9°C° 0 mm 7 mps 754 mmHg 51%
    10:00 +9°C° 0 mm 7 mps 754 mmHg 50%
    11:00 +9°C° 0 mm 7 mps 755 mmHg 49%
    12:00 +9°C° 0 mm 8 mps 755 mmHg 48%
    13:00 +9°C° 0 mm 7 mps 755 mmHg 48%
    14:00 +9°C° 0 mm 7 mps 756 mmHg 48%
    15:00 +9°C° 0 mm 7 mps 756 mmHg 49%
    16:00 +9°C° 0 mm 6 mps 756 mmHg 50%
    17:00 +8°C° 0 mm 6 mps 756 mmHg 52%
    18:00 +8°C° 0 mm 5 mps 756 mmHg 53%
    19:00 +7°C° 0 mm 4 mps 757 mmHg 57%
    20:00 +6°C° 0 mm 4 mps 757 mmHg 61%
    21:00 +4°C° 0 mm 3 mps 757 mmHg 65%
    22:00 +4°C° 0 mm 3 mps 757 mmHg 66%
    23:00 +3°C° 0 mm 3 mps 758 mmHg 68%

    Tomorrow, 29 May, Tuesday

    Time Temperature Precipitation Wind Pressure Humidity
    00:00 +3°C° 0 mm 2 mps 758 mmHg 69%
    01:00 +2°C° 0 mm 3 mps 758 mmHg 71%
    02:00 +2°C° 0 mm 3 mps 758 mmHg 72%
    03:00 +1°C° 0 mm 3 mps 758 mmHg 73%
    04:00 +3°C° 0 mm 3 mps 757 mmHg 71%
    05:00 +4°C° 0 mm 4 mps 757 mmHg 68%
    06:00 +6°C° 0 mm 4 mps 757 mmHg 65%
    07:00 +7°C° 0.2 mm 5 mps 756 mmHg 67%
    08:00 +7°C° 0.2 mm 5 mps 755 mmHg 68%
    09:00 +8°C° 0.2 mm 6 mps 754 mmHg 70%
    10:00 +10°C° 0.1 mm 6 mps 754 mmHg 67%
    11:00 +12°C° 0.1 mm 7 mps 753 mmHg 65%
    12:00 +14°C° 0.1 mm 7 mps 752 mmHg 62%
    13:00 +15°C° 0.1 mm 7 mps 752 mmHg 62%
    14:00 +16°C° 0.1 mm 7 mps 751 mmHg 61%
    15:00 +17°C° 0.1 mm 7 mps 751 mmHg 61%
    16:00 +16°C° 0.3 mm 6 mps 751 mmHg 66%
    17:00 +15°C° 0.3 mm 5 mps 751 mmHg 72%
    18:00 +14°C° 0.3 mm 5 mps 751 mmHg 77%
    19:00 +13°C° 0.1 mm 4 mps 750 mmHg 81%
    20:00 +12°C° 0.1 mm 4 mps 750 mmHg 85%
    21:00 +11°C° 0.1 mm 3 mps 750 mmHg 89%
    22:00 +11°C° 0.1 mm 3 mps 750 mmHg 89%
    23:00 +11°C° 0.1 mm 3 mps 749 mmHg 89%

    Day after tomorrow, 30 May, Wednesday

    Time Temperature Precipitation Wind Pressure Humidity
    00:00 +11°C° 0.1 mm 3 mps 749 mmHg 90%
    01:00 +11°C° 0.2 mm 3 mps 748 mmHg 89%
    02:00 +11°C° 0.2 mm 4 mps 747 mmHg 87%
    03:00 +11°C° 0.2 mm 4 mps 747 mmHg 86%
    04:00 +12°C° 0 mm 5 mps 746 mmHg 83%
    05:00 +13°C° 0 mm 5 mps 745 mmHg 81%
    06:00 +13°C° 0 mm 6 mps 744 mmHg 78%
    07:00 +15°C° 0 mm 6 mps 744 mmHg 72%
    08:00 +16°C° 0 mm 7 mps 743 mmHg 66%
    09:00 +18°C° 0 mm 7 mps 742 mmHg 60%
    10:00 +20°C° 0 mm 7 mps 742 mmHg 57%
    11:00 +21°C° 0 mm 8 mps 741 mmHg 53%
    12:00 +22°C° 0 mm 8 mps 741 mmHg 49%
    13:00 +23°C° 0 mm 7 mps 740 mmHg 50%
    14:00 +23°C° 0 mm 7 mps 740 mmHg 51%
    15:00 +23°C° 0 mm 7 mps 739 mmHg 52%
    16:00 +22°C° 0.1 mm 6 mps 739 mmHg 56%
    17:00 +21°C° 0.1 mm 6 mps 739 mmHg 60%
    18:00 +19°C° 0.1 mm 6 mps 738 mmHg 65%
    19:00 +16°C° 0.5 mm 5 mps 738 mmHg 72%
    20:00 +14°C° 0.5 mm 4 mps 739 mmHg 80%
    21:00 +12°C° 0.5 mm 3 mps 739 mmHg 88%
    22:00 +11°C° 0 mm 4 mps 739 mmHg 87%
    23:00 +11°C° 0 mm 4 mps 739 mmHg 87%

    31 May, Thursday

    Time Temperature Precipitation Wind Pressure Humidity
    00:00 +10°C° 0 mm 4 mps 739 mmHg 87%
    01:00 +8°C° 0 mm 4 mps 740 mmHg 88%
    02:00 +7°C° 0 mm 4 mps 740 mmHg 88%
    03:00 +5°C° 0 mm 4 mps 741 mmHg 88%
    04:00 +6°C° 0 mm 5 mps 741 mmHg 84%
    05:00 +6°C° 0 mm 5 mps 742 mmHg 80%
    06:00 +5°C° 0 mm 6 mps 742 mmHg 76%
    07:00 +7°C° 0 mm 6 mps 743 mmHg 71%
    08:00 +8°C° 0 mm 6 mps 743 mmHg 67%
    09:00 +9°C° 0 mm 6 mps 743 mmHg 62%
    10:00 +9°C° 0 mm 6 mps 744 mmHg 61%
    11:00 +9°C° 0 mm 6 mps 744 mmHg 59%
    12:00 +9°C° 0 mm 6 mps 744 mmHg 58%
    13:00 +9°C° 0 mm 6 mps 745 mmHg 57%
    14:00 +9°C° 0 mm 6 mps 745 mmHg 56%
    15:00 +9°C° 0 mm 5 mps 746 mmHg 56%
    16:00 +9°C° 0 mm 5 mps 746 mmHg 56%
    17:00 +10°C° 0 mm 4 mps 746 mmHg 57%
    18:00 +10°C° 0 mm 4 mps 747 mmHg 58%
    19:00 +9°C° 0 mm 3 mps 747 mmHg 60%
    20:00 +8°C° 0 mm 3 mps 748 mmHg 62%
    21:00 +6°C° 0 mm 2 mps 748 mmHg 65%
    22:00 +5°C° 0 mm 2 mps 749 mmHg 67%
    23:00 +4°C° 0 mm 2 mps 749 mmHg 70%

    1 June, Friday

    Time Temperature Precipitation Wind Pressure Humidity
    00:00 +3°C° 0 mm 2 mps 750 mmHg 73%
    01:00 +3°C° 0 mm 2 mps 750 mmHg 73%
    02:00 +2°C° 0 mm 2 mps 750 mmHg 74%
    03:00 +2°C° 0 mm 2 mps 751 mmHg 74%
    04:00 +3°C° 0 mm 2 mps 751 mmHg 71%
    05:00 +4°C° 0 mm 2 mps 752 mmHg 67%
    06:00 +6°C° 0 mm 2 mps 752 mmHg 63%
    07:00 +7°C° 0 mm 3 mps 752 mmHg 58%
    08:00 +9°C° 0 mm 3 mps 753 mmHg 53%
    09:00 +10°C° 0 mm 3 mps 753 mmHg 47%
    10:00 +10°C° 0 mm 3 mps 753 mmHg 48%
    11:00 +10°C° 0 mm 3 mps 753 mmHg 48%
    12:00 +10°C° 0 mm 3 mps 753 mmHg 48%
    13:00 +10°C° 0 mm 3 mps 753 mmHg 48%
    14:00 +11°C° 0 mm 3 mps 753 mmHg 48%
    15:00 +11°C° 0 mm 3 mps 754 mmHg 48%
    16:00 +10°C° 0 mm 3 mps 754 mmHg 50%
    17:00 +10°C° 0 mm 3 mps 754 mmHg 52%
    18:00 +9°C° 0 mm 3 mps 754 mmHg 54%
    19:00 +8°C° 0 mm 2 mps 754 mmHg 58%
    20:00 +6°C° 0 mm 2 mps 755 mmHg 62%
    21:00 +5°C° 0 mm 2 mps 755 mmHg 66%
    22:00 +4°C° 0 mm 2 mps 755 mmHg 68%
    23:00 +3°C° 0 mm 2 mps 756 mmHg 70%

    2 June, Saturday

    Time Temperature Precipitation Wind Pressure Humidity
    00:00 +3°C° 0 mm 1 mps 756 mmHg 71%
    01:00 +3°C° 0 mm 1 mps 756 mmHg 72%
    02:00 +2°C° 0 mm 2 mps 756 mmHg 74%
    03:00 +1°C° 0 mm 2 mps 756 mmHg 75%
    04:00 +3°C° 0 mm 2 mps 757 mmHg 71%
    05:00 +4°C° 0 mm 2 mps 757 mmHg 67%
    06:00 +5°C° 0 mm 2 mps 757 mmHg 62%
    07:00 +7°C° 0 mm 2 mps 757 mmHg 57%
    08:00 +8°C° 0 mm 3 mps 758 mmHg 51%
    09:00 +10°C° 0 mm 3 mps 758 mmHg 46%
    10:00 +11°C° 0 mm 3 mps 757 mmHg 44%
    11:00 +12°C° 0 mm 3 mps 757 mmHg 43%
    12:00 +13°C° 0 mm 3 mps 757 mmHg 41%
    13:00 +13°C° 0 mm 3 mps 757 mmHg 42%
    14:00 +14°C° 0 mm 3 mps 756 mmHg 43%
    15:00 +14°C° 0 mm 3 mps 756 mmHg 44%
    16:00 +14°C° 0 mm 3 mps 756 mmHg 47%
    17:00 +15°C° 0 mm 2 mps 756 mmHg 51%
    18:00 +14°C° 0 mm 1 mps 755 mmHg 55%
    19:00 +13°C° 0 mm 1 mps 755 mmHg 60%
    20:00 +11°C° 0 mm 1 mps 755 mmHg 65%
    21:00 +9°C° 0 mm 1 mps 755 mmHg 71%
    22:00 +8°C° 0 mm 1 mps 756 mmHg 72%
    23:00 +7°C° 0 mm 2 mps 756 mmHg 74%
    Show more